Regional Weather Roundup
Issued by NWS

Home | Current Version | Previous Version | Text Only | Print | Product List | Glossary Off
Versions: 1 2 3 4 5 6 7 8 9 10 11 12 13 14 15 16 17 18 19 20 21 22 23 24 25 26 27 28 29 30 31 32 33 34 35 36 37 38 39 40 41 42 43 44 45 46 47 48 49 50

000
ASUS43 KLMK 280210
RWRKY
KENTUCKY REGIONAL WEATHER ROUNDUP
NATIONAL WEATHER SERVICE LOUISVILLE KY
1000 PM EDT TUE JUN 27 2017

NOTE "FAIR" INDICATES FEW OR NO CLOUDS BELOW 12,000 FEET
WITH NO SIGNIFICANT WEATHER AND/OR OBSTRUCTIONS TO VISIBILITY.

KYZ001>023-026-027-061>063-070>075-280300-
WESTERN AND SOUTH CENTRAL KENTUCKY

CITY           SKY/WX    TMP DP  RH WIND       PRES   REMARKS
PADUCAH        CLEAR     69  59  70 CALM      30.05S
HENDERSON      CLEAR     63  58  83 CALM      30.08R
OWENSBORO      CLEAR     71  55  56 CALM      30.08S
HOPKINSVILLE   CLEAR     70  55  59 N5        30.07R
BOWLING GREEN  CLEAR     70  55  59 CALM      30.09R
GLASGOW        NOT AVBL
$$

KYZ024-025-028>034-038-045-046-053-280300-
NORTH CENTRAL KENTUCKY

CITY           SKY/WX    TMP DP  RH WIND       PRES   REMARKS
LOUISVILLE/SDF PTCLDY    71  48  43 E5        30.08R
LOUISVILLE/LOU CLEAR     72  50  45 CALM      30.09S
FORT KNOX      CLEAR     61  55  78 CALM      30.08R
$$

KYZ035>037-039>044-047>052-055>060-089>105-280300-
NORTHEAST KENTUCKY

CITY           SKY/WX    TMP DP  RH WIND       PRES   REMARKS
LEXINGTON      CLEAR     65  49  56 CALM      30.12R
COVINGTON      PTCLDY    61  52  72 CALM      30.10S
FRANKFORT      CLEAR     61  52  72 CALM      30.09S
$$

KYZ054-064>069-076>088-106>120-280300-
SOUTHEAST KENTUCKY

CITY           SKY/WX    TMP DP  RH WIND       PRES   REMARKS
JACKSON        CLEAR     64  49  57 CALM      30.13R
LONDON         CLEAR     66  50  56 CALM      30.12R
SOMERSET       NOT AVBL
MIDDLESBORO    NOT AVBL
MONTICELLO     CLEAR     60  55  83 N8        30.13R
$$





USA.gov is the U.S. government's official web portal to all federal, state and local government web resources and services.